Location: Ao Por, Phuket, Thailand
(8.0591°N, 98.4362°E)
Time: 02:59:30
(UTC+07:00)

Hubble Space Telescope - Visible Passes

Search period start: 25 September 2021 00:00
Search period end: 05 October 2021 00:00
Orbit: 535 x 539 km, 28.5° (Epoch: 23 September)

Date Brightness Start Highest point End Pass type
(mag) Time Alt. Az. Time Alt. Az. Time Alt. Az.
25 Sep 2.6 20:11:09 10° W 20:13:52 28° WSW 20:13:52 28° WSW visible
26 Sep 2.6 20:00:30 10° W 20:03:48 23° SSW 20:04:00 23° SSW visible
27 Sep 3.1 19:50:04 10° WSW 19:52:46 17° SSW 19:54:10 15° S visible
28 Sep 3.5 19:40:02 10° SW 19:41:45 12° SSW 19:43:27 10° S visible
30 Sep 3.0 05:43:12 10° SSW 05:46:26 22° SSE 05:49:39 10° E visible
01 Oct 2.4 05:31:45 10° SSW 05:35:23 30° SSE 05:39:01 10° E visible
02 Oct 1.8 05:20:33 11° SW 05:24:20 42° SSE 05:28:15 10° ENE visible
03 Oct 1.1 05:10:46 22° SW 05:13:16 61° SSE 05:17:21 10° ENE visible
04 Oct 0.7 05:00:56 43° WSW 05:02:14 87° SSE 05:06:22 10° ENE visible
